Погода в Озерном

Россия / Республика Марий Эл     56°34′42″N   47°07′24″E
темп.,
°C
ветер,
м/с
пор.,
м/с
влажн.,
%
обл.,
%
осадки,
мм/ч
давл.,
гПа
погр.,
м
16 января, вс
вс1600:00−13сз2996100 0.1 990299
03:00−12сз279696 0.2 991180
06:00−10сз2796100 0.3 992247
09:00−7сз4109399 0.7 995760
12:00−6сз51089100 0.1 997767
15:00−7сз41089100 0.2 999684
18:00−9зсз41093100 0.1 1001375
21:00−11з2698100 0.1 1003134
17 января, пн
пн1700:00−11зюз399799 0.0 1002242
03:00−10юз41293100 0.0 1001355
06:00−9ююз5149299 0.1 999453
09:00−8ююз51589100 0.1 997543
12:00−7ююз61688100 0.0 996609
15:00−6ююз61588100 0.0 995655
18:00−6ююз61587100 0.0 994709
21:00−6ююз61494100 0.6 994864
18 января, вт
вт1800:00−5ююз61492100 0.6 995785
03:00−4ю51394100 1.2 996699
06:00−4ю51296100 0.8 996664
09:00−3ю41196100 1.8 998652
12:00−1ю41197100 0.6 999618
15:000ю41097100 1.4 1000685
18:00−1ю41197100 0.7 1002561
21:000ююз41198100 1.5 1004657
19 января, ср
ср1900:00−1ююз41196100 0.3 1006601
03:00−2ю4997100 0.7 1008465
06:00−2ю399693 0.6 1009431
09:00−4ююв3109583 0.8 1012349
12:00−2ююз589187 0.1 1013657
15:00−4ю389095 0.1 1015595
18:00−9ю2997100 0.0 1017148
21:00−10ююз379319 0.0 1018153
20 января, чт
чт2000:00−13ююз279724 0.0 102098
03:00−16ю259965 0.0 102156
06:00−18ю2310088 0.0 102239
09:00−19ю2210093 0.0 102331
12:00−10ююз369254 0.0 1022225
15:00−10ююз24955 0.0 102282
18:00−17ю2210068 0.0 102327
21:00−19ю2210086 0.0 102325